This is the latest recevied weather packets stored in our database for station/object VE4JMP. If no packets are shown the sender has not sent any weather packets the latest 10 day(s).
| Time | Temp. | Humidity | Pressure | Rain* | Wind** | Luminosity | Snow |
|---|---|---|---|---|---|---|---|
| 1778148019 | -7.22° C | 90% | 1013.5 hPa | 0 mm | - | - | - |
| 1778145618 | -8.33° C | 90% | 1013.5 hPa | 0 mm | - | - | - |
| 1778134819 | -7.78° C | 82% | 1014 hPa | 0 mm | - | - | - |
| 1778130631 | -6.67° C | 83% | 1014.1 hPa | 0 mm | - | - | - |
| 1778115048 | 2.78° C | 54% | 1015 hPa | 0 mm | - | - | - |
| 1778113818 | 3.89° C | 53% | 1015.1 hPa | 0 mm | - | - | - |
| 1778112030 | 4.44° C | 51% | 1015.1 hPa | 0 mm | - | - | - |
| 1778108419 | 6.11° C | 49% | 1015.1 hPa | 0 mm | - | - | - |
| 1778107246 | 6.67° C | 49% | 1015.1 hPa | 0 mm | - | - | - |
| 1778106630 | 7.22° C | 48% | 1015 hPa | 0 mm | - | - | - |
| 1778105421 | 7.22° C | 47% | 1015.1 hPa | 0 mm | - | - | - |
| 1778099446 | 6.11° C | 50% | 1015.7 hPa | 0 mm | - | - | - |
| 1778096428 | 6.67° C | 48% | 1016.1 hPa | 0 mm | - | - | - |
| 1778090432 | 5° C | 53% | 1016.8 hPa | 0 mm | - | - | - |
| 1778088031 | 4.44° C | 54% | 1017.1 hPa | 0 mm | - | - | - |
| 1778085623 | 3.89° C | 58% | 1017.3 hPa | 0 mm | - | - | - |
| 1778085035 | 3.33° C | 59% | 1017.3 hPa | 0 mm | - | - | - |
| 1778081422 | 2.22° C | 62% | 1017.3 hPa | 0 mm | - | - | - |
| 1778075427 | 0.56° C | 68% | 1017.5 hPa | 0 mm | - | - | - |
| 1778071833 | -0.56° C | 75% | 1017.5 hPa | 0 mm | - | - | - |
| 1778070027 | -0.56° C | 72% | 1017.3 hPa | 0 mm | - | - | - |
| 1778067646 | -1.11° C | 78% | 1017.1 hPa | 0 mm | - | - | - |
| 1778064032 | -1.11° C | 79% | 1016.9 hPa | 0 mm | - | - | - |
| 1778060420 | -1.11° C | 83% | 1016.8 hPa | 0 mm | - | - | - |
| 1778059229 | -1.11° C | 83% | 1016.8 hPa | 0 mm | - | - | - |
* Rain latest hour (hover to see other rain measurements)
** Current wind speed in m/s (hover to see current wind gust speed)